Location: Acheville
(50.3840°N, 2.8827°E)
Time: 11:13:21
(UTC+00:00)

Cosmos 1980 Rocket - Pass Details

Date: 24 October 2021
Orbit: 828 x 851 km, 71.0° (Epoch: 05 December)

Event Time Altitude Azimuth Distance (km) Brightness Sun altitude
Rises 18:38:38 0° 248° (WSW) 3,396 6.4 -19.7°
Reaches altitude 10° 18:41:27 10° 260° (W) 2,468 5.7 -20.2°
Maximum altitude 18:46:13 27° 318° (NW) 1,583 4.1 -20.9°
Drops below altitude 10° 18:51:01 10° 15° (NNE) 2,488 4.6 -21.7°
Enters shadow 18:53:29 - 26° (NNE) 3,292 5.1 -22.1°
